Location: Colorado Springs
(38.8340°N, 104.8210°W)
Time: 21:33:34
(UTC-07:00)

Vanguard 3 - Pass Details

Date: 26 October 2017
Orbit: 509 x 3263 km, 33.4° (Epoch: 18 November)

Event Time Altitude Azimuth Distance (km) Brightness Sun altitude
Rises 05:04:18 0° 257° (WSW) 7,011 - -27.1°
Reaches altitude 10° 05:09:27 10° 256° (WSW) 5,747 - -26.1°
Exits shadow 05:17:20 32° 249° (WSW) 3,731 9.9 -24.5°
Maximum altitude 05:25:36 68° 179° (S) 2,137 9.1 -22.9°
Drops below altitude 10° 05:34:46 10° 98° (E) 3,436 11.5 -21.1°
Sets 05:37:05 0° 96° (E) 4,130 12.3 -20.7°
